Weather Roundup
Issued by NWS Chicago, IL

Home | Current Version | Previous Version | Graphics & Text | Print | Product List | Glossary On
Versions: 1 2 3 4 5 6 7 8 9 10 11 12 13 14 15 16 17 18 19 20 21 22 23 24 25 26 27 28 29 30 31 32 33 34 35 36 37 38 39 40 41 42 43 44 45 46 47 48 49 50
640
NZUS59 KLOT 271509
HRRLOT

CHICAGO AREA WEATHER ROUNDUP
NATIONAL WEATHER SERVICE CHICAGO/ROMEOVILLE IL
1000 AM CDT TUE JUN 27 2017

NOTE: "FAIR" INDICATES FEW OR NO CLOUDS BELOW 12,000 FEET WITH NO
SIGNIFICANT WEATHER AND/OR OBSTRUCTIONS TO VISIBILITY.

* THESE STATIONS ARE NOT UNDER NWS QUALITY CONTROL. THEY ALSO MAY NOT
  REPORT WEATHER SUCH AS PRECIPITATION OR FOG.

ILZ005-006-012>014-019>023-271600-
NORTHEAST ILLINOIS

CITY           SKY/WX    TMP DP  RH WIND       PRES   REMARKS
OHARE          MOSUNNY   69  45  41 NW8       30.13S
MIDWAY         MOSUNNY   68  46  45 W5        30.14S
AURORA         SUNNY     68  48  48 W7        30.16S
LANSING*       SUNNY     68  44  42 W7        30.15F
JOLIET*        SUNNY     69  47  46 W6        30.16S
WAUKEGAN       SUNNY     68  50  52 VRB6      30.12F
DUPAGE AIRPORT SUNNY     67  48  50 NW7       30.14S
WHEELING       SUNNY     68  49  50 NW9       30.14F
MORRIS*        SUNNY     68  45  44 W7        30.15F
LEWIS AIRPORT* SUNNY     68  44  42 W6        30.15F
$$

WIZ051-052-058>065-066-070>072-271600-
SOUTHEAST WISCONSIN

CITY           SKY/WX    TMP DP  RH WIND       PRES   REMARKS
MILWAUKEE      MOSUNNY   68  47  46 W10       30.11F
KENOSHA*       SUNNY     67  48  50 NW10      30.12F
RACINE*        SUNNY     67  48  50 NW6       30.12F
WAUKESHA       SUNNY     64  48  55 NW9       30.13R
WEST BEND      SUNNY     64  48  55 W9        30.10F
$$

INZ001>003-010>013-019-020-271600-
NORTHWEST INDIANA

CITY           SKY/WX    TMP DP  RH WIND       PRES   REMARKS
GARY*          MOSUNNY   70  43  37 W10       30.15S
MICHIGAN CITY* NOT AVBL
RENSSELAER*    NOT AVBL
VALPARAISO     SUNNY     69  48  47 W8        30.15F
$$

LMZ740>746-271600-
SOUTHERN LAKE MICHIGAN

STATION/POSITION TIME  SKY/WX   TEMP WIND        PRES    VSBY
                                AIR  DIR/SP/G
                 (UTC)          (F)  (DEG/KT/KT) (MB)    (MI)
HARRISON CRIB    1440            65  330/  4/  4   N/A
BURNHAM HARBOR   1500            67                N/A
CALUMET HARBOR   1442            68  260/  5/ 10 1020.0F
BURNS HARBOR     1430            64  270/  6/ 10 1021.3S
MICHIGAN CITY    1440            62  240/ 10/ 11   N/A
$$

ABBREVIATIONS USED IN REMARKS
   TC - TEMPERATURE IN CELSIUS
  WCI - WIND CHILL INDEX
   HX - HEAT INDEX
  VSB - VISIBILITY
$$




USA.gov is the U.S. government's official web portal to all federal, state and local government web resources and services.